Palestine, IL

1:23 AM CST on February 26, 2017 (GMT -0600)
Robinson Municipal

Weather History for KRSV - January, 2013

Change the Weather History Date:

Thursday, January 31, 2013

  Actual Average (KLWV) Record (KLWV)
Temperature  
Mean Temperature 23 °F -  
Max Temperature 33 °F 38 °F 65 °F (2016)
Min Temperature 13 °F 23 °F -11 °F (2004)
Degree Days  
Heating Degree Days 42    
Moisture  
Dew Point 16 °F    
Average Humidity 66    
Maximum Humidity 90    
Minimum Humidity 57    
Precipitation  
Precipitation 0.00 in - - ()
Sea Level Pressure  
Sea Level Pressure 30.03 in    
Wind  
Wind Speed 21 mph (West)    
Max Wind Speed 31 mph    
Max Gust Speed 37 mph    
Visibility 9 miles    
Events Snow    
Averages and records for this station are not official NWS values.
T = Trace of Precipitation, MM = Missing Value Source: NWS Daily Summary

Daily Weather History Graph

Daily Weather History Graph

Search for Another Location

Airport or City:

Trip Planner

Search our weather history database for the weather conditions in past years. The results will help you decide how hot, cold, wet, or windy it might be!

Date:

Astronomy

Jan. 31, 2013 Rise Set
Actual Time 6:57 AM CST 5:10 PM CST
Civil Twilight 6:29 AM CST 5:39 PM CST
Nautical Twilight 5:57 AM CST 6:11 PM CST
Astronomical Twilight 5:26 AM CST 6:42 PM CST
Moon 10:09 PM CST (1/31) 8:59 AM CST (1/31)
Length of Visible Light 11h 09m
Length of Day
10h 13m
Waning Gibbous, 79% of the Moon is Illuminated
Jan 31
Waning Gibbous
Feb 3
Last Quarter
Feb 10
New
Feb 17
First Quarter
Feb 25
Full

Hourly Weather History & Observations

Time (CST) Temp. Windchill Dew Point Humidity Pressure Visibility Wind Dir Wind Speed Gust Speed Precip Events Conditions
12:15 AM 30.6 °F 15.4 °F 18.7 °F 61% 29.85 in 10.0 mi West 31.1 mph 36.8 mph N/A   Overcast
12:55 AM 30.0 °F 16.0 °F 19.4 °F 65% 29.85 in 10.0 mi West 25.3 mph 33.4 mph N/A   Overcast
1:15 AM 30.0 °F 15.7 °F 18.9 °F 63% 29.86 in 10.0 mi West 26.5 mph 32.2 mph N/A   Overcast
1:35 AM 30.0 °F 16.3 °F 18.1 °F 61% 29.87 in 10.0 mi WSW 24.2 mph 29.9 mph N/A   Overcast
1:55 AM 30.0 °F 17.5 °F 19.4 °F 65% 29.88 in 10.0 mi WSW 19.6 mph 28.8 mph N/A   Overcast
2:15 AM 30.0 °F 18.3 °F 19.9 °F 66% 29.88 in 10.0 mi WSW 17.3 mph 27.6 mph N/A   Overcast
2:53 AM 28.4 °F 13.3 °F 17.6 °F 64% 29.90 in 10.0 mi West 27.6 mph 36.8 mph N/A   Mostly Cloudy
2:55 AM 28.9 °F 15.1 °F 16.9 °F 61% 29.91 in 10.0 mi West 23.0 mph 36.8 mph N/A   Mostly Cloudy
3:15 AM 27.5 °F 13.2 °F 15.4 °F 61% 29.92 in 10.0 mi West 23.0 mph 34.5 mph N/A   Scattered Clouds
3:35 AM 26.6 °F 13.1 °F 15.4 °F 63% 29.92 in 10.0 mi West 19.6 mph 29.9 mph N/A   Clear
3:55 AM 26.6 °F 14.3 °F 15.8 °F 64% 29.92 in 10.0 mi West 16.1 mph 27.6 mph N/A   Clear
4:15 AM 26.6 °F 13.8 °F 15.3 °F 62% 29.92 in 10.0 mi West 17.3 mph 21.9 mph N/A   Scattered Clouds
4:35 AM 27.1 °F 16.9 °F 16.2 °F 63% 29.92 in 10.0 mi West 11.5 mph - N/A   Overcast
5:15 AM 28.0 °F 16.5 °F 16.9 °F 63% 29.93 in 10.0 mi WSW 15.0 mph 21.9 mph N/A   Overcast
5:35 AM 28.4 °F 18.0 °F 16.7 °F 62% 29.93 in 10.0 mi WSW 12.7 mph 20.7 mph N/A   Overcast
5:55 AM 28.4 °F 18.0 °F 17.2 °F 63% 29.93 in 10.0 mi WSW 12.7 mph - N/A   Overcast
6:15 AM 28.9 °F 17.3 °F 18.1 °F 64% 29.93 in 10.0 mi WSW 16.1 mph - N/A   Overcast
6:35 AM 28.9 °F 18.2 °F 19.2 °F 67% 29.93 in 10.0 mi WSW 13.8 mph 19.6 mph N/A   Overcast
6:55 AM 28.9 °F 16.5 °F 18.3 °F 65% 29.94 in 10.0 mi WSW 18.4 mph - N/A   Overcast
7:15 AM 29.1 °F 17.1 °F 18.3 °F 64% 29.95 in 10.0 mi WSW 17.3 mph 25.3 mph N/A   Mostly Cloudy
7:35 AM 29.3 °F 16.2 °F 18.3 °F 64% 29.96 in 10.0 mi WSW 20.7 mph 25.3 mph N/A   Overcast
7:55 AM 29.3 °F 17.7 °F 18.5 °F 64% 29.97 in 10.0 mi WSW 16.1 mph - N/A   Mostly Cloudy
8:15 AM 29.7 °F 17.4 °F 19.6 °F 66% 29.98 in 10.0 mi WSW 18.4 mph 28.8 mph N/A   Mostly Cloudy
8:35 AM 30.0 °F 17.5 °F 20.3 °F 67% 29.98 in 10.0 mi SW 19.6 mph 29.9 mph N/A   Overcast
8:55 AM 30.6 °F 18.2 °F 19.9 °F 65% 29.99 in 10.0 mi SW 19.6 mph 25.3 mph N/A   Overcast
9:15 AM 30.4 °F 18.0 °F 20.3 °F 66% 29.99 in 10.0 mi WSW 19.6 mph 26.5 mph N/A   Overcast
9:35 AM 30.6 °F 18.6 °F 19.4 °F 63% 30.00 in 10.0 mi WSW 18.4 mph - N/A Snow Light Snow
9:55 AM 30.7 °F 17.8 °F 19.4 °F 63% 30.01 in 7.0 mi WSW 21.9 mph 29.9 mph N/A Snow Light Snow
10:15 AM 31.5 °F 18.8 °F 18.7 °F 59% 30.01 in 10.0 mi WSW 21.9 mph 27.6 mph N/A   Overcast
10:35 AM 31.5 °F 19.8 °F 19.4 °F 61% 30.01 in 10.0 mi SW 18.4 mph 27.6 mph N/A   Overcast
10:55 AM 31.8 °F 19.9 °F 19.4 °F 60% 30.02 in 10.0 mi SW 19.6 mph 24.2 mph N/A   Overcast
11:15 AM 31.6 °F 19.0 °F 18.5 °F 58% 30.02 in 10.0 mi WSW 21.9 mph 27.6 mph N/A   Overcast
11:55 AM 32.0 °F 19.8 °F 20.3 °F 62% 30.01 in 10.0 mi SW 20.7 mph 25.3 mph N/A   Overcast
12:15 PM 32.0 °F 20.5 °F 21.9 °F 66% 30.00 in 7.0 mi SW 18.4 mph 28.8 mph N/A Snow Light Snow
12:35 PM 33.1 °F 20.9 °F 19.8 °F 58% 29.99 in 10.0 mi WSW 21.9 mph 27.6 mph N/A   Overcast
12:55 PM 33.1 °F 21.2 °F 20.3 °F 59% 29.98 in 10.0 mi WSW 20.7 mph 28.8 mph N/A   Mostly Cloudy
1:15 PM 33.1 °F 21.2 °F 20.1 °F 59% 29.98 in 10.0 mi SW 20.7 mph 26.5 mph N/A   Overcast
1:35 PM 33.3 °F 21.2 °F 20.7 °F 60% 29.98 in 10.0 mi SW 21.9 mph 26.5 mph N/A   Overcast
1:55 PM 32.5 °F 20.5 °F 21.4 °F 64% 29.98 in 10.0 mi SW 20.7 mph 28.8 mph N/A   Overcast
2:15 PM 32.0 °F 20.5 °F 23.0 °F 69% 29.98 in 3.0 mi WSW 18.4 mph 23.0 mph N/A Snow Light Snow
2:35 PM 32.0 °F 20.5 °F 22.8 °F 69% 29.97 in 7.0 mi WSW 18.4 mph 27.6 mph N/A Snow Light Snow
2:55 PM 32.0 °F 21.6 °F 23.7 °F 71% 29.98 in 10.0 mi WSW 15.0 mph 23.0 mph N/A   Overcast
3:15 PM 32.0 °F 19.2 °F 24.1 °F 73% 29.98 in 7.0 mi WSW 23.0 mph 27.6 mph N/A Snow Light Snow
3:55 PM 31.1 °F 21.4 °F 25.3 °F 79% 29.99 in 5.0 mi West 12.7 mph - N/A Snow Light Snow
4:15 PM 30.2 °F 17.4 °F 25.7 °F 83% 30.00 in 0.8 mi West 20.7 mph 26.5 mph N/A Snow Light Snow
4:35 PM 29.1 °F 16.4 °F 26.1 °F 88% 30.01 in 1.2 mi West 19.6 mph 24.2 mph N/A Snow Light Snow
4:55 PM 28.2 °F 16.3 °F 25.5 °F 90% 30.02 in 1.0 mi WNW 16.1 mph 23.0 mph N/A Snow Light Snow
5:15 PM 27.1 °F 14.1 °F 21.9 °F 81% 30.03 in 2.5 mi WNW 18.4 mph 27.6 mph N/A Snow Light Snow
5:35 PM 25.9 °F 11.4 °F 20.3 °F 79% 30.05 in 2.0 mi WNW 21.9 mph 28.8 mph N/A Snow Light Snow
5:55 PM 24.8 °F 10.0 °F 18.9 °F 78% 30.07 in 3.0 mi WNW 21.9 mph 28.8 mph N/A Snow Light Snow
6:15 PM 23.7 °F 9.3 °F 15.8 °F 72% 30.09 in 4.0 mi WNW 19.6 mph 27.6 mph N/A Snow Light Snow
6:35 PM 22.8 °F 7.7 °F 14.4 °F 70% 30.11 in 10.0 mi WNW 20.7 mph 26.5 mph N/A   Overcast
6:55 PM 21.2 °F 5.6 °F 10.4 °F 63% 30.12 in 10.0 mi West 20.7 mph 31.1 mph N/A   Overcast
7:15 PM 19.6 °F 2.7 °F 9.9 °F 66% 30.13 in 10.0 mi WNW 23.0 mph 27.6 mph N/A   Scattered Clouds
7:35 PM 18.7 °F 2.3 °F 8.2 °F 64% 30.14 in 10.0 mi WNW 20.7 mph 34.5 mph N/A   Clear
7:55 PM 18.1 °F 1.6 °F 7.9 °F 64% 30.16 in 10.0 mi WNW 20.7 mph 26.5 mph N/A   Scattered Clouds
8:15 PM 17.6 °F 0.9 °F 7.3 °F 64% 30.17 in 10.0 mi West 20.7 mph 28.8 mph N/A   Scattered Clouds
8:35 PM 17.8 °F 1.9 °F 8.1 °F 66% 30.18 in 10.0 mi WNW 18.4 mph 27.6 mph N/A   Overcast
8:55 PM 17.4 °F 0.6 °F 6.1 °F 61% 30.20 in 10.0 mi West 20.7 mph 33.4 mph N/A   Overcast
9:15 PM 17.2 °F 0.4 °F 6.6 °F 63% 30.21 in 10.0 mi WNW 20.7 mph 27.6 mph N/A   Overcast
9:35 PM 16.7 °F 1.0 °F 6.8 °F 65% 30.23 in 10.0 mi WNW 17.3 mph 29.9 mph N/A   Overcast
9:55 PM 16.3 °F 1.6 °F 5.4 °F 62% 30.24 in 10.0 mi WNW 15.0 mph 26.5 mph N/A   Overcast
10:15 PM 15.4 °F -1.1 °F 4.8 °F 63% 30.26 in 10.0 mi West 18.4 mph 29.9 mph N/A   Overcast
10:35 PM 14.7 °F -1.1 °F 3.9 °F 62% 30.26 in 10.0 mi WNW 16.1 mph 21.9 mph N/A   Scattered Clouds
10:55 PM 13.8 °F -2.7 °F 2.3 °F 60% 30.28 in 10.0 mi WNW 17.3 mph 27.6 mph N/A   Clear
11:15 PM 13.5 °F -2.1 °F 2.3 °F 61% 30.29 in 10.0 mi WNW 15.0 mph 23.0 mph N/A   Clear
11:35 PM 13.1 °F -4.2 °F 1.6 °F 60% 30.30 in 10.0 mi West 18.4 mph 24.2 mph N/A   Clear
11:55 PM 13.1 °F -3.7 °F 0.3 °F 57% 30.31 in 10.0 mi West 17.3 mph 28.8 mph N/A   Scattered Clouds